Regional Weather Roundup
Issued by NWS Newport/Morehead, NC

Current Version | Previous Version | Graphics & Text | Print | Product List | Glossary Off
Versions: 1 2 3 4 5 6 7 8 9 10 11 12 13 14 15 16 17 18 19 20 21 22 23 24 25 26 27 28 29 30 31 32 33 34 35 36 37 38 39 40 41 42 43 44 45 46 47 48 49 50

000
ASUS42 KMHX 051613
RWRMHX
WEATHER ROUNDUP FOR EASTERN NORTH CAROLINA
NATIONAL WEATHER SERVICE NEWPORT/MOREHEAD CITY NC
1200 PM EDT TUE MAY 05 2015

NOTE: "FAIR" INDICATES FEW OR NO CLOUDS BELOW 12,000 FEET
WITH NO SIGNIFICANT WEATHER AND/OR OBSTRUCTIONS TO VISIBILITY

NCZ015>017-031-032-045>047-102-103-051700-
NORTH COAST

CITY           SKY/WX    TMP DP  RH WIND       PRES   REMARKS
EDENTON        SUNNY     76  53  45 SW9       30.36F
ELIZABETH CITY MOSUNNY   75  53  46 SW12      30.35F
KITTY HAWK     SUNNY     77  47  34 SW7       30.35F
MANTEO         SUNNY     74  54  49 S12       30.37S

$$

NCZ045>047-081-094-103-104-051700-
CENTRAL COAST

CITY           SKY/WX    TMP DP  RH WIND       PRES   REMARKS
FRISCO         SUNNY     71  53  52 VRB3      30.39S
SWANQUARTER      N/A     79 N/A N/A S6        30.33S

$$

NCZ095-097-098-100-101-051700-
SOUTHERN COAST

CITY           SKY/WX    TMP DP  RH WIND       PRES   REMARKS
BEAUFORT       MOSUNNY   76  50  40 S7        30.37F
CEDAR ISLAND     N/A     77 N/A N/A SE5G13    30.41S
JACKSONVILLE   SUNNY     77  48  35 E9        30.37S
PINEY ISLAND   SUNNY    N/A N/A N/A SE7       30.37F
WILMINGTON     MOSUNNY   75  49  39 E10       30.37S


$$

NCZ011>013-027>030-043-044-078>080-089-090>093-098-051700-
COASTAL PLAIN

CITY           SKY/WX    TMP DP  RH WIND       PRES   REMARKS
AHOSKIE        SUNNY     76  53  46 S5        30.34F
CLINTON        SUNNY     76  52  43 CALM      30.37S
ELIZABETHTOWN  SUNNY     77  49  36 SE3       30.36S
GOLDSBORO      MOSUNNY   76  51  40 VRB1      30.34F
GREENVILLE     SUNNY     77  52  41 S5        30.37S
HAVELOCK       MOSUNNY   77  45  32 S5        30.38S
KENANSVILLE    SUNNY     75  46  34 CALM      30.38S
KINSTON        SUNNY     77  48  36 SW5       30.37F
NEW BERN       SUNNY     78  48  34 SE5       30.37F
RICHLANDS      SUNNY     77  48  36 N5        30.37S
ROCKY MOUNT    SUNNY     77  54  44 S12       30.35F
WASHINGTON       N/A    N/A N/A N/A SW6       30.37S
WHITEVILLE     MOSUNNY   76  49  38 NE7       30.35F

$$

AMZ130-135-150-152-154-156-158-170-250-252-270-ANZ085-086-088-633-658-670-051700-
MARINE OBSERVATIONS

STATION/POSITION TIME  TEMP    WIND        PRES    WAVE   SWELL
                       AIR SEA DIR/SP/G            HT/PER HT/PER
                 (UTC) (F)     (DEG/KT/KT) (MB)    (FT/S) (FT/S)
CHESAPEAKE LIGHT 1500   65     210/ 18/ 19 1027.4
64 E VA BEACH    1550   61 58  210/ 12/ 14 1027.8    2/11   2/11
DUCK             1500   71 53  230/ 11/ 14 1027.4
2 E DUCK         1511      59                N/A     2/11   2/11
OREGON INLET     1500   69 68  180/  9/ 10 1028.7
13E OREGON INLT  1600      64                N/A     2/12   2/12
HATTERAS CG      1500   74 65  180/  4/  6 1028.5
DIAMOND BUOY     1550   73 77  170/ 10/ 12 1029.0    3/ 8   3/ 8
CAPE LOOKOUT     1600   72      90/  3/  3 1028.3
BEAUFORT LAB     1500   72 66  190/  6/  7 1027.9
27 SE WRIGHTSVLE 1500   69 71  120/  8/ 12   N/A
5 SE WRIGHTSVLE  1508   71 69  100/  6/  8 1028.3
225 S CAPE HAT   1550   69 70  100/ 17/ 21 1027.0    5/ 6   2/ 9
41 SE CHARLESTON 1550   72 73   50/ 12/ 16 1026.6    3/ 7   2/ 7

$$


USA.gov is the U.S. government's official web portal to all federal, state and local government web resources and services.